Jackson, MN

10:30 PM CDT on May 20, 2018 (GMT -0500)
Jackson Municipal

Weather History for KMJQ - October, 2012

Change the Weather History Date:

Tuesday, October 2, 2012

  Actual Average Record
Temperature  
Mean Temperature 53 °F -  
Max Temperature 71 °F 63 °F 93 °F (1997)
Min Temperature 35 °F 40 °F 23 °F (2003)
Degree Days  
Heating Degree Days 12    
Growing Degree Days 3 (Base 50)    
Moisture  
Dew Point 28 °F    
Average Humidity 41    
Maximum Humidity 81    
Minimum Humidity 14    
Precipitation  
Precipitation 0.00 in - - ()
Sea Level Pressure  
Sea Level Pressure 29.93 in    
Wind  
Wind Speed 6 mph (SW)    
Max Wind Speed 12 mph    
Max Gust Speed 10 mph    
Visibility 10 miles    
Events      
Averages and records for this station are not official NWS values.
T = Trace of Precipitation, MM = Missing Value Source: NWS Daily Summary

Daily Weather History Graph

Daily Weather History Graph

Search for Another Location

Airport or City:

Astronomy

Oct. 02, 2012 Rise Set
Actual Time 7:19 AM CDT 6:58 PM CDT
Civil Twilight 6:50 AM CDT 7:26 PM CDT
Nautical Twilight 6:17 AM CDT 7:59 PM CDT
Astronomical Twilight 5:43 AM CDT 8:33 PM CDT
Moon 8:04 PM CDT (10/2) 9:53 AM CDT (10/2)
Length of Visible Light 12h 36m
Length of Day
11h 38m
Waning Gibbous, 94% of the Moon is Illuminated
Oct 2
Waning Gibbous
Oct 8
Last Quarter
Oct 15
New
Oct 21
First Quarter
Oct 29
Full

Hourly Weather History & Observations

Time (CDT) Temp. Windchill Dew Point Humidity Pressure Visibility Wind Dir Wind Speed Gust Speed Precip Events Conditions
12:13 AM 46.4 °F 41.1 °F 28.4 °F 50% 29.99 in 10.0 mi NNW 11.5 mph - N/A   Clear
12:34 AM 44.6 °F 39.7 °F 28.4 °F 53% 29.99 in 10.0 mi NW 9.2 mph - N/A   Clear
12:53 AM 44.6 °F 39.2 °F 28.4 °F 53% 29.99 in 10.0 mi NNW 10.4 mph - N/A   Clear
1:33 AM 44.6 °F 40.2 °F 28.4 °F 53% 30.00 in 10.0 mi NNW 8.1 mph - N/A   Clear
2:14 AM 44.6 °F - 28.4 °F 53% 29.99 in 10.0 mi Calm Calm - N/A   Clear
2:33 AM 44.6 °F - 28.4 °F 53% 29.99 in 10.0 mi Calm Calm - N/A   Clear
2:54 AM 42.8 °F - 28.4 °F 57% 29.98 in 10.0 mi Calm Calm - N/A   Clear
3:13 AM 41.0 °F 38.0 °F 28.4 °F 61% 29.98 in 5.0 mi NW 4.6 mph - N/A   Haze
3:34 AM 42.8 °F 40.1 °F 28.4 °F 57% 29.98 in 5.0 mi NW 4.6 mph - N/A   Haze
3:54 AM 41.0 °F 39.0 °F 28.4 °F 61% 29.98 in 10.0 mi NW 3.5 mph - N/A   Clear
4:13 AM 41.0 °F 39.0 °F 28.4 °F 61% - 10.0 mi NW 3.5 mph - N/A   Clear
4:34 AM 39.2 °F 37.0 °F 28.4 °F 65% 29.98 in 10.0 mi WNW 3.5 mph - N/A   Clear
4:53 AM 37.4 °F 33.8 °F 28.4 °F 70% 29.98 in 10.0 mi NW 4.6 mph - N/A   Clear
5:13 AM 37.4 °F 33.8 °F 28.4 °F 70% 29.97 in 10.0 mi NW 4.6 mph - N/A   Clear
5:34 AM 39.2 °F 37.0 °F 28.4 °F 65% 29.97 in 10.0 mi NW 3.5 mph - N/A   Clear
5:53 AM 35.6 °F - 28.4 °F 75% 29.98 in 10.0 mi Calm Calm - N/A   Clear
6:14 AM 37.4 °F - 28.4 °F 70% 29.98 in 10.0 mi Calm Calm - N/A   Clear
6:33 AM 37.4 °F 34.9 °F 28.4 °F 70% 29.98 in 10.0 mi NW 3.5 mph - N/A   Clear
6:54 AM 37.4 °F - 28.4 °F 70% 29.98 in 10.0 mi Calm Calm - N/A   Clear
7:13 AM 37.4 °F - 28.4 °F 70% 29.98 in 10.0 mi Calm Calm - N/A   Clear
7:33 AM 37.4 °F - 28.4 °F 70% 29.98 in 10.0 mi Calm Calm - N/A   Clear
7:54 AM 35.6 °F - 30.2 °F 81% 29.98 in 10.0 mi Calm Calm - N/A   Clear
8:13 AM 37.4 °F - 32.0 °F 81% 29.99 in 10.0 mi Calm Calm - N/A   Clear
8:33 AM 42.8 °F - 32.0 °F 66% 29.99 in 10.0 mi Calm Calm - N/A   Clear
8:54 AM 46.4 °F - 32.0 °F 57% 29.98 in 10.0 mi Calm Calm - N/A   Clear
9:13 AM 50.0 °F - 32.0 °F 50% 29.98 in 10.0 mi Calm Calm - N/A   Clear
9:33 AM 53.6 °F - 32.0 °F 44% 29.98 in 10.0 mi Calm Calm - N/A   Clear
9:54 AM 55.4 °F - 32.0 °F 41% 29.98 in 10.0 mi Calm Calm - N/A   Clear
10:13 AM 59.0 °F - 33.8 °F 39% 29.98 in 10.0 mi South 4.6 mph - N/A   Clear
10:33 AM 60.8 °F - 33.8 °F 36% 29.97 in 10.0 mi SSW 4.6 mph - N/A   Clear
10:54 AM 62.6 °F - 33.8 °F 34% 29.97 in 10.0 mi SSE 4.6 mph - N/A   Clear
11:13 AM 64.4 °F - 33.8 °F 32% 29.96 in 10.0 mi SSW 5.8 mph - N/A   Clear
11:33 AM 64.4 °F - 32.0 °F 30% 29.96 in 10.0 mi South 5.8 mph - N/A   Clear
11:53 AM 66.2 °F - 32.0 °F 28% 29.95 in 10.0 mi SSW 9.2 mph - N/A   Clear
12:13 PM 66.2 °F - 32.0 °F 28% 29.95 in 10.0 mi SW 6.9 mph - N/A   Clear
12:33 PM 68.0 °F - 32.0 °F 26% 29.95 in 10.0 mi WSW 5.8 mph - N/A   Clear
12:54 PM 68.0 °F - 32.0 °F 26% 29.93 in 10.0 mi South 5.8 mph 10.4 mph N/A   Clear
1:13 PM 68.0 °F - 32.0 °F 26% 29.93 in 10.0 mi WSW 8.1 mph - N/A   Clear
1:34 PM 69.8 °F - 32.0 °F 25% 29.91 in 10.0 mi SW 9.2 mph - N/A   Clear
1:53 PM 69.8 °F - 26.6 °F 20% 29.91 in 10.0 mi SSW 8.1 mph - N/A   Clear
2:14 PM 69.8 °F - 26.6 °F 20% 29.90 in 10.0 mi SW 8.1 mph - N/A   Clear
2:33 PM 69.8 °F - 24.8 °F 18% 29.89 in 10.0 mi SW 6.9 mph - N/A   Clear
2:53 PM 71.6 °F - 26.6 °F 19% 29.88 in 10.0 mi SSW 6.9 mph - N/A   Clear
3:14 PM 71.6 °F - 24.8 °F 17% 29.88 in 10.0 mi SW 9.2 mph - N/A   Clear
3:33 PM 71.6 °F - 21.2 °F 15% 29.87 in 10.0 mi South 9.2 mph - N/A   Clear
3:53 PM 71.6 °F - 23.0 °F 16% 29.87 in 10.0 mi South 6.9 mph - N/A   Clear
4:14 PM 71.6 °F - 19.4 °F 14% 29.87 in 10.0 mi SSW 9.2 mph - N/A   Clear
4:33 PM 71.6 °F - 19.4 °F 14% 29.87 in 10.0 mi SW 8.1 mph - N/A   Clear
4:53 PM 71.6 °F - 21.2 °F 15% 29.87 in 10.0 mi SSW 9.2 mph - N/A   Clear
5:14 PM 71.6 °F - 21.2 °F 15% 29.86 in 10.0 mi SSW 8.1 mph - N/A   Clear
5:33 PM 71.6 °F - 19.4 °F 14% 29.86 in 10.0 mi South 11.5 mph - N/A   Clear
5:53 PM 71.6 °F - 19.4 °F 14% 29.86 in 10.0 mi South 8.1 mph - N/A   Clear
6:14 PM 69.8 °F - 19.4 °F 15% 29.86 in 10.0 mi South 8.1 mph - N/A   Clear
6:33 PM 68.0 °F - 21.2 °F 17% 29.86 in 10.0 mi South 6.9 mph - N/A   Clear
7:14 PM 62.6 °F - 26.6 °F 26% 29.85 in 10.0 mi SSE 5.8 mph - N/A   Clear
7:33 PM 62.6 °F - 24.8 °F 24% 29.86 in 10.0 mi South 5.8 mph - N/A   Clear
8:14 PM 59.0 °F - 24.8 °F 27% 29.86 in 10.0 mi South 5.8 mph - N/A   Clear
8:33 PM 59.0 °F - 24.8 °F 27% 29.87 in 10.0 mi SSW 5.8 mph - N/A   Clear
8:53 PM 55.4 °F - 26.6 °F 33% 29.87 in 10.0 mi Calm Calm - N/A   Clear
9:14 PM 53.6 °F - 26.6 °F 35% 29.88 in 10.0 mi SSW 4.6 mph - N/A   Clear
9:33 PM 55.4 °F - 24.8 °F 31% 29.88 in 10.0 mi South 5.8 mph - N/A   Clear
9:54 PM 55.4 °F - 26.6 °F 33% 29.88 in 10.0 mi SSW 4.6 mph - N/A   Clear
10:13 PM 53.6 °F - 28.4 °F 38% 29.89 in 10.0 mi South 4.6 mph - N/A   Clear
10:33 PM 53.6 °F - 28.4 °F 38% 29.88 in 10.0 mi South 4.6 mph - N/A   Clear
10:54 PM 51.8 °F - 30.2 °F 44% 29.88 in 10.0 mi South 5.8 mph - N/A   Clear
11:13 PM 51.8 °F - 30.2 °F 44% 29.88 in 10.0 mi South 6.9 mph - N/A   Clear
11:33 PM 50.0 °F - 30.2 °F 47% 29.88 in 10.0 mi South 6.9 mph - N/A   Clear
11:54 PM 50.0 °F - 30.2 °F 47% 29.88 in 10.0 mi South 6.9 mph - N/A   Clear